STARLINK-34571

Last updated on Tue Aug 26 2025 00:02:05 GMT+0000 (Coordinated Universal Time)

1 64914U 25157L 25237.58336806 .00018785 00000+0 47932-3 0 9998 2 64914 53.1607 187.5930 0001018 87.6218 273.1548 15.39564697 5980
UTC large
Height (km)
Speed (km/s)
/
Latitude / Longitude
Inclination (degrees)
Orbital Period (minutes)
Azimuth
Elevation
Range (km)
Doppler Factor

Next 0 passes for location: London (51.5072 / 0.1276)

Sorry there are no passes over London.
STARLINK-34571